| time (UTC) | temp C | wind direction | speed KPH | gust KPH | rain 1hr cm | rain 24hr cm | rain mn cm | humidity % | barometer mb |
| 20260504081544 | 15 | 179 | 14.5 | 27.4 | 0.00 | 0.00 | 0.00 | 36 | 995.3 |
| 20260504081026 | 15 | 100 | 9.7 | 35.4 | 0.00 | 0.00 | 0.00 | 36 | 995.6 |
| 20260504080526 | 15 | 186 | 12.9 | 38.6 | 0.00 | 0.00 | 0.00 | 35 | 995.7 |
| 20260504050529 | 15 | 236 | 9.7 | 22.5 | 0.00 | 0.00 | 0.00 | 39 | 999.3 |
| 20260504045528 | 15 | 181 | 9.7 | 25.7 | 0.00 | 0.00 | 0.00 | 39 | 999.6 |
| 20260504045028 | 15 | 181 | 9.7 | 25.7 | 0.00 | 0.00 | 0.00 | 38 | 999.7 |
| 20260504044537 | 15 | 225 | 9.7 | 17.7 | 0.00 | 0.00 | 0.00 | 38 | 999.7 |
| 20260504044028 | 15 | 186 | 9.7 | 17.7 | 0.00 | 0.00 | 0.00 | 39 | 999.8 |
| 20260504043527 | 15 | 223 | 9.7 | 22.5 | 0.00 | 0.00 | 0.00 | 38 | 1000.0 |
| 20260504043035 | 15 | 179 | 8.0 | 22.5 | 0.00 | 0.00 | 0.00 | 40 | 1000.1 |
| 20260504042529 | 15 | 193 | 6.4 | 16.1 | 0.00 | 0.00 | 0.00 | 40 | 1000.2 |
| 20260504042030 | 15 | 206 | 6.4 | 17.7 | 0.00 | 0.00 | 0.00 | 39 | 1000.4 |
| 20260504041543 | 15 | 215 | 8.0 | 20.9 | 0.00 | 0.00 | 0.00 | 39 | 1000.4 |
| 20260504041027 | 15 | 175 | 6.4 | 20.9 | 0.00 | 0.00 | 0.00 | 40 | 1000.6 |
| 20260504040529 | 15 | 213 | 8.0 | 17.7 | 0.00 | 0.00 | 0.00 | 40 | 1000.8 |
| 20260504040049 | 14 | 201 | 6.4 | 12.9 | 0.00 | 0.00 | 0.00 | 40 | 1000.9 |
| 20260504035532 | 14 | 205 | 6.4 | 14.5 | 0.00 | 0.00 | 0.00 | 40 | 1001.0 |
| 20260504035029 | 14 | 196 | 6.4 | 16.1 | 0.00 | 0.00 | 0.00 | 40 | 1001.1 |
| 20260504034541 | 14 | 200 | 6.4 | 16.1 | 0.00 | 0.00 | 0.00 | 40 | 1001.2 |
| 20260504034029 | 14 | 213 | 8.0 | 14.5 | 0.00 | 0.00 | 0.00 | 39 | 1001.4 |
| 20260504033529 | 14 | 181 | 6.4 | 12.9 | 0.00 | 0.00 | 0.00 | 39 | 1001.5 |
| 20260504033043 | 15 | 195 | 6.4 | 12.9 | 0.00 | 0.00 | 0.00 | 39 | 1001.6 |
| 20260504032528 | 15 | 185 | 6.4 | 12.9 | 0.00 | 0.00 | 0.00 | 40 | 1001.8 |
| 20260504032028 | 15 | 182 | 4.8 | 16.1 | 0.00 | 0.00 | 0.00 | 40 | 1002.0 |
| 20260504031546 | 15 | 205 | 4.8 | 16.1 | 0.00 | 0.00 | 0.00 | 40 | 1002.2 |
| 20260504031029 | 15 | 185 | 6.4 | 11.3 | 0.00 | 0.00 | 0.00 | 40 | 1002.2 |
| 20260504030526 | 14 | 190 | 4.8 | 11.3 | 0.00 | 0.00 | 0.00 | 43 | 1002.3 |
| 20260504030043 | 14 | 165 | 4.8 | 11.3 | 0.00 | 0.00 | 0.00 | 46 | 1002.4 |
| 20260504025525 | 14 | 204 | 3.2 | 8.0 | 0.00 | 0.00 | 0.00 | 46 | 1002.5 |
| 20260504025024 | 14 | 193 | 3.2 | 8.0 | 0.00 | 0.00 | 0.00 | 48 | 1002.6 |
| 20260504024547 | 15 | 206 | 3.2 | 6.4 | 0.00 | 0.00 | 0.00 | 46 | 1002.6 |
| 20260504024026 | 15 | 179 | 3.2 | 8.0 | 0.00 | 0.00 | 0.00 | 45 | 1002.7 |
| 20260504023525 | 15 | 174 | 3.2 | 8.0 | 0.00 | 0.00 | 0.00 | 44 | 1002.7 |
| 20260504023038 | 15 | 175 | 4.8 | 8.0 | 0.00 | 0.00 | 0.00 | 40 | 1002.8 |
| 20260504022525 | 15 | 191 | 3.2 | 8.0 | 0.00 | 0.00 | 0.00 | 43 | 1002.9 |
| 20260504022026 | 15 | 182 | 1.6 | 6.4 | 0.00 | 0.00 | 0.00 | 48 | 1003.0 |
| 20260504021544 | 15 | 186 | 1.6 | 6.4 | 0.00 | 0.00 | 0.00 | 48 | 1002.9 |
| 20260504021026 | 16 | 163 | 3.2 | 6.4 | 0.00 | 0.00 | 0.00 | 40 | 1003.1 |
| 20260504020524 | 16 | 188 | 3.2 | 6.4 | 0.00 | 0.00 | 0.00 | 35 | 1003.0 |
| 20260504020044 | 16 | 183 | 1.6 | 4.8 | 0.00 | 0.00 | 0.00 | 34 | 1003.1 |
| 20260504015527 | 16 | 0 | 1.6 | 6.4 | 0.00 | 0.00 | 0.00 | 34 | 1003.1 |
| 20260504015025 | 16 | 225 | 1.6 | 6.4 | 0.00 | 0.00 | 0.00 | 33 | 1003.1 |
| 20260504014541 | 17 | 211 | 0.0 | 6.4 | 0.00 | 0.00 | 0.00 | 33 | 1003.2 |
| 20260504014025 | 17 | 220 | 1.6 | 6.4 | 0.00 | 0.00 | 0.00 | 32 | 1003.2 |
| 20260504013526 | 17 | 0 | 1.6 | 6.4 | 0.00 | 0.00 | 0.00 | 32 | 1003.3 |
| 20260504013042 | 17 | 184 | 1.6 | 6.4 | 0.00 | 0.00 | 0.00 | 32 | 1003.3 |
| 20260504012525 | 17 | 229 | 0.0 | 4.8 | 0.00 | 0.00 | 0.00 | 31 | 1003.4 |
| 20260504012025 | 17 | 191 | 1.6 | 4.8 | 0.00 | 0.00 | 0.00 | 31 | 1003.4 |
| 20260504011537 | 18 | 0 | 1.6 | 9.7 | 0.00 | 0.00 | 0.00 | 31 | 1003.5 |
| 20260504011027 | 18 | 202 | 1.6 | 9.7 | 0.00 | 0.00 | 0.00 | 30 | 1003.4 |
| 20260504010527 | 18 | 213 | 1.6 | 9.7 | 0.00 | 0.00 | 0.00 | 30 | 1003.5 |
| 20260504010036 | 18 | 266 | 1.6 | 12.9 | 0.00 | 0.00 | 0.00 | 29 | 1003.6 |
| 20260504005527 | 18 | 262 | 1.6 | 17.7 | 0.00 | 0.00 | 0.00 | 28 | 1003.6 |
| 20260504005026 | 18 | 282 | 4.8 | 17.7 | 0.00 | 0.00 | 0.00 | 28 | 1003.7 |
| 20260504004544 | 19 | 275 | 6.4 | 17.7 | 0.00 | 0.00 | 0.00 | 28 | 1003.6 |
| 20260504004024 | 19 | 293 | 8.0 | 17.7 | 0.00 | 0.00 | 0.00 | 27 | 1003.8 |
| 20260504003525 | 19 | 263 | 3.2 | 19.3 | 0.00 | 0.00 | 0.00 | 27 | 1003.8 |
| 20260504003048 | 20 | 305 | 8.0 | 19.3 | 0.00 | 0.00 | 0.00 | 27 | 1003.8 |
| 20260504002527 | 20 | 193 | 6.4 | 19.3 | 0.00 | 0.00 | 0.00 | 27 | 1003.8 |
| 20260504002026 | 20 | 281 | 8.0 | 19.3 | 0.00 | 0.00 | 0.00 | 27 | 1003.9 |
| 20260504001543 | 20 | 273 | 4.8 | 14.5 | 0.00 | 0.00 | 0.00 | 27 | 1004.0 |
| 20260504001025 | 20 | 244 | 4.8 | 20.9 | 0.00 | 0.00 | 0.00 | 27 | 1003.9 |
| 20260504000528 | 20 | 286 | 11.3 | 20.9 | 0.00 | 0.00 | 0.00 | 26 | 1003.9 |
| 20260504000106 | 20 | 263 | 9.7 | 20.9 | 0.00 | 0.00 | 0.00 | 25 | 1003.9 |
| 20260503235525 | 20 | 319 | 8.0 | 20.9 | 0.00 | 0.00 | 0.00 | 25 | 1004.0 |
| 20260503235027 | 20 | 292 | 11.3 | 22.5 | 0.00 | 0.00 | 0.00 | 25 | 1003.9 |
| 20260503234547 | 20 | 262 | 8.0 | 22.5 | 0.00 | 0.00 | 0.00 | 25 | 1004.1 |
| 20260503234027 | 20 | 304 | 9.7 | 25.7 | 0.00 | 0.00 | 0.00 | 24 | 1004.3 |
| 20260503233528 | 20 | 321 | 9.7 | 25.7 | 0.00 | 0.00 | 0.00 | 24 | 1004.2 |
| 20260503233043 | 20 | 304 | 11.3 | 24.1 | 0.00 | 0.00 | 0.00 | 24 | 1004.3 |
| 20260503232527 | 21 | 289 | 6.4 | 19.3 | 0.00 | 0.00 | 0.00 | 25 | 1004.2 |
| 20260503232026 | 20 | 292 | 8.0 | 19.3 | 0.00 | 0.00 | 0.00 | 25 | 1004.3 |
| 20260503231545 | 20 | 311 | 9.7 | 24.1 | 0.00 | 0.00 | 0.00 | 24 | 1004.4 |
| 20260503231027 | 20 | 307 | 3.2 | 24.1 | 0.00 | 0.00 | 0.00 | 25 | 1004.4 |
| 20260503230530 | 20 | 233 | 9.7 | 24.1 | 0.00 | 0.00 | 0.00 | 25 | 1004.4 |
| 20260503230042 | 20 | 303 | 8.0 | 20.9 | 0.00 | 0.00 | 0.00 | 24 | 1004.5 |
| 20260503225526 | 20 | 298 | 8.0 | 29.0 | 0.00 | 0.00 | 0.00 | 24 | 1004.5 |
| 20260503225029 | 20 | 278 | 11.3 | 29.0 | 0.00 | 0.00 | 0.00 | 24 | 1004.6 |
| 20260503224539 | 20 | 285 | 17.7 | 29.0 | 0.00 | 0.00 | 0.00 | 23 | 1004.7 |
| 20260503224029 | 20 | 302 | 8.0 | 24.1 | 0.00 | 0.00 | 0.00 | 24 | 1004.7 |
| 20260503223529 | 20 | 298 | 11.3 | 24.1 | 0.00 | 0.00 | 0.00 | 24 | 1004.6 |
| 20260503223040 | 20 | 318 | 14.5 | 24.1 | 0.00 | 0.00 | 0.00 | 24 | 1004.6 |
| 20260503222526 | 21 | 288 | 8.0 | 20.9 | 0.00 | 0.00 | 0.00 | 25 | 1004.6 |
| 20260503222026 | 20 | 306 | 11.3 | 20.9 | 0.00 | 0.00 | 0.00 | 25 | 1004.6 |
| 20260503221547 | 21 | 290 | 4.8 | 17.7 | 0.00 | 0.00 | 0.00 | 25 | 1004.7 |
| 20260503221027 | 21 | 288 | 4.8 | 24.1 | 0.00 | 0.00 | 0.00 | 23 | 1004.8 |
| 20260503220527 | 20 | 288 | 6.4 | 24.1 | 0.00 | 0.00 | 0.00 | 24 | 1005.0 |
| 20260503220043 | 20 | 305 | 9.7 | 33.8 | 0.00 | 0.00 | 0.00 | 24 | 1005.2 |
| 20260503215526 | 20 | 308 | 8.0 | 33.8 | 0.00 | 0.00 | 0.00 | 24 | 1005.2 |
| 20260503215029 | 20 | 318 | 12.9 | 33.8 | 0.00 | 0.00 | 0.00 | 23 | 1005.3 |
| 20260503214544 | 20 | 336 | 11.3 | 24.1 | 0.00 | 0.00 | 0.00 | 23 | 1005.2 |
| 20260503214026 | 20 | 300 | 11.3 | 22.5 | 0.00 | 0.00 | 0.00 | 23 | 1005.2 |
| 20260503213530 | 20 | 305 | 11.3 | 22.5 | 0.00 | 0.00 | 0.00 | 23 | 1005.3 |
| 20260503213041 | 20 | 273 | 11.3 | 22.5 | 0.00 | 0.00 | 0.00 | 23 | 1005.4 |
| 20260503212529 | 20 | 292 | 8.0 | 24.1 | 0.00 | 0.00 | 0.00 | 24 | 1005.3 |
| 20260503212030 | 20 | 222 | 8.0 | 24.1 | 0.00 | 0.00 | 0.00 | 24 | 1005.4 |
| 20260503211540 | 20 | 277 | 6.4 | 19.3 | 0.00 | 0.00 | 0.00 | 25 | 1005.5 |
| 20260503211029 | 20 | 317 | 6.4 | 29.0 | 0.00 | 0.00 | 0.00 | 26 | 1005.5 |
| 20260503210527 | 20 | 299 | 9.7 | 29.0 | 0.00 | 0.00 | 0.00 | 25 | 1005.5 |
| 20260503210037 | 20 | 301 | 6.4 | 20.9 | 0.00 | 0.00 | 0.00 | 25 | 1005.6 |
| 20260503205530 | 20 | 217 | 11.3 | 22.5 | 0.00 | 0.00 | 0.00 | 25 | 1005.6 |
| 20260503205029 | 20 | 292 | 11.3 | 22.5 | 0.00 | 0.00 | 0.00 | 25 | 1005.7 |
| 20260503204542 | 21 | 313 | 9.7 | 20.9 | 0.00 | 0.00 | 0.00 | 24 | 1005.7 |
| 20260503204026 | 21 | 325 | 9.7 | 22.5 | 0.00 | 0.00 | 0.00 | 22 | 1005.8 |
| 20260503203527 | 20 | 56 | 8.0 | 24.1 | 0.00 | 0.00 | 0.00 | 23 | 1005.8 |
| 20260503203100 | 21 | 316 | 11.3 | 24.1 | 0.00 | 0.00 | 0.00 | 24 | 1005.9 |
| 20260503202526 | 20 | 34 | 9.7 | 19.3 | 0.00 | 0.00 | 0.00 | 25 | 1005.8 |
| 20260503202025 | 20 | 268 | 6.4 | 25.7 | 0.00 | 0.00 | 0.00 | 26 | 1005.9 |
| 20260503201539 | 20 | 11 | 8.0 | 25.7 | 0.00 | 0.00 | 0.00 | 24 | 1006.1 |
| 20260503201025 | 20 | 290 | 9.7 | 20.9 | 0.00 | 0.00 | 0.00 | 24 | 1006.1 |
| 20260503200525 | 21 | 248 | 8.0 | 19.3 | 0.00 | 0.00 | 0.00 | 23 | 1006.1 |
| 20260503200038 | 21 | 307 | 6.4 | 19.3 | 0.00 | 0.00 | 0.00 | 25 | 1006.2 |
| 20260503195526 | 20 | 292 | 8.0 | 16.1 | 0.00 | 0.00 | 0.00 | 24 | 1006.1 |
| 20260503195026 | 20 | 342 | 4.8 | 20.9 | 0.00 | 0.00 | 0.00 | 25 | 1006.2 |
| 20260503194538 | 20 | 249 | 8.0 | 20.9 | 0.00 | 0.00 | 0.00 | 24 | 1006.2 |
| 20260503194028 | 20 | 296 | 9.7 | 20.9 | 0.00 | 0.00 | 0.00 | 24 | 1006.4 |
| 20260503193527 | 20 | 333 | 4.8 | 17.7 | 0.00 | 0.00 | 0.00 | 24 | 1006.5 |
| 20260503193044 | 20 | 264 | 9.7 | 24.1 | 0.00 | 0.00 | 0.00 | 24 | 1006.4 |
| 20260503192526 | 20 | 352 | 9.7 | 24.1 | 0.00 | 0.00 | 0.00 | 24 | 1006.5 |
| 20260503192025 | 20 | 24 | 9.7 | 24.1 | 0.00 | 0.00 | 0.00 | 23 | 1006.4 |
| 20260503191543 | 20 | 319 | 8.0 | 24.1 | 0.00 | 0.00 | 0.00 | 23 | 1006.6 |
| 20260503191027 | 20 | 302 | 8.0 | 20.9 | 0.00 | 0.00 | 0.00 | 24 | 1006.6 |
| 20260503190525 | 19 | 325 | 8.0 | 24.1 | 0.00 | 0.00 | 0.00 | 24 | 1006.7 |
| 20260503190043 | 20 | 335 | 9.7 | 24.1 | 0.00 | 0.00 | 0.00 | 26 | 1006.8 |
| 20260503185525 | 19 | 337 | 12.9 | 24.1 | 0.00 | 0.00 | 0.00 | 23 | 1006.8 |
| 20260503185026 | 19 | 9 | 6.4 | 14.5 | 0.00 | 0.00 | 0.00 | 24 | 1006.8 |
| 20260503184539 | 19 | 246 | 6.4 | 19.3 | 0.00 | 0.00 | 0.00 | 24 | 1006.9 |
| 20260503184025 | 19 | 297 | 8.0 | 22.5 | 0.00 | 0.00 | 0.00 | 25 | 1007.0 |
| 20260503183525 | 18 | 19 | 6.4 | 22.5 | 0.00 | 0.00 | 0.00 | 25 | 1007.2 |
| 20260503183046 | 19 | 297 | 8.0 | 19.3 | 0.00 | 0.00 | 0.00 | 24 | 1007.2 |
| 20260503182524 | 19 | 288 | 6.4 | 27.4 | 0.00 | 0.00 | 0.00 | 25 | 1007.3 |
| 20260503182024 | 19 | 300 | 6.4 | 27.4 | 0.00 | 0.00 | 0.00 | 25 | 1007.2 |
| 20260503181549 | 18 | 313 | 8.0 | 25.7 | 0.00 | 0.00 | 0.00 | 24 | 1007.2 |
| 20260503181027 | 18 | 264 | 11.3 | 25.7 | 0.00 | 0.00 | 0.00 | 23 | 1007.5 |
| 20260503180527 | 18 | 58 | 9.7 | 25.7 | 0.00 | 0.00 | 0.00 | 23 | 1007.5 |
| 20260503180042 | 18 | 35 | 8.0 | 20.9 | 0.00 | 0.00 | 0.00 | 23 | 1007.4 |
| 20260503175525 | 18 | 310 | 4.8 | 20.9 | 0.00 | 0.00 | 0.00 | 23 | 1007.4 |
| 20260503175025 | 18 | 331 | 9.7 | 20.9 | 0.00 | 0.00 | 0.00 | 22 | 1007.5 |
| 20260503174540 | 18 | 307 | 9.7 | 24.1 | 0.00 | 0.00 | 0.00 | 23 | 1007.5 |
| 20260503174025 | 18 | 286 | 6.4 | 24.1 | 0.00 | 0.00 | 0.00 | 24 | 1007.5 |
| 20260503173525 | 18 | 286 | 11.3 | 20.9 | 0.00 | 0.00 | 0.00 | 24 | 1007.6 |
| 20260503173051 | 18 | 289 | 8.0 | 25.7 | 0.00 | 0.00 | 0.00 | 25 | 1007.6 |
| 20260503172525 | 17 | 49 | 9.7 | 25.7 | 0.00 | 0.00 | 0.00 | 25 | 1007.7 |
| 20260503172024 | 17 | 336 | 11.3 | 25.7 | 0.00 | 0.00 | 0.00 | 25 | 1007.9 |
| 20260503171539 | 18 | 319 | 12.9 | 25.7 | 0.00 | 0.00 | 0.00 | 25 | 1008.1 |
| 20260503171027 | 17 | 326 | 9.7 | 30.6 | 0.00 | 0.00 | 0.00 | 27 | 1008.0 |
| 20260503170525 | 17 | 336 | 9.7 | 30.6 | 0.00 | 0.00 | 0.00 | 26 | 1007.9 |
| 20260503150525 | 15 | 288 | 9.7 | 25.7 | 0.00 | 0.00 | 0.00 | 45 | 1007.7 |
| 20260503131029 | 11 | 327 | 6.4 | 16.1 | 0.00 | 0.00 | 0.00 | 58 | 1007.2 |
| 20260503130529 | 11 | 0 | 3.2 | 16.1 | 0.00 | 0.00 | 0.00 | 59 | 1007.1 |
| 20260503110526 | 8 | 302 | 4.8 | 14.5 | 0.00 | 0.00 | 0.00 | 62 | 1005.3 |